******** Week 355 almanac for PRN-1 ******** ID: 1 Health: 0 Eccentricity: 0.001422405243 Time of Applicability(s): 147456 Orbital Inclination(rad): 0.9583988389 Rate of Right Ascen(r/s): -8.148910863e-09 SQRT(A) (m 1/2): 5153.580566 Right Ascen at Week(rad): -2.519141001 Argument of Perigee(rad): -0.003136496363 Mean Anom(rad): -0.5277523084 Af0(s): 0.0002683080566 Af1(s/s): -3.637979e-12 week: 355 ******** Week 355 almanac for PRN-2 ******** ID: 2 Health: 0 Eccentricity: 0.01697540283 Time of Applicability(s): 147456 Orbital Inclination(rad): 0.9638816218 Rate of Right Ascen(r/s): -8.080336578e-09 SQRT(A) (m 1/2): 5153.558594 Right Ascen at Week(rad): -2.681809253 Argument of Perigee(rad): -0.8409656441 Mean Anom(rad): 0.8684705638 Af0(s): 1.959553223e-05 Af1(s/s): 7.275958e-12 week: 355 ******** Week 355 almanac for PRN-3 ******** ID: 3 Health: 0 Eccentricity: 0.006372928619 Time of Applicability(s): 147456 Orbital Inclination(rad): 0.9926617379 Rate of Right Ascen(r/s): -7.600316584e-09 SQRT(A) (m 1/2): 5153.605469 Right Ascen at Week(rad): -1.532952767 Argument of Perigee(rad): 1.207165358 Mean Anom(rad): -2.749749696 Af0(s): 0.0004642633789 Af1(s/s): -1.091394e-11 week: 355 ******** Week 355 almanac for PRN-4 ******** ID: 4 Health: 0 Eccentricity: 0.00372171402 Time of Applicability(s): 147456 Orbital Inclination(rad): 0.9705268745 Rate of Right Ascen(r/s): -7.760323248e-09 SQRT(A) (m 1/2): 5153.694336 Right Ascen at Week(rad): -0.4617293409 Argument of Perigee(rad): -2.90404397 Mean Anom(rad): 0.2884966208 Af0(s): 3.240799561e-05 Af1(s/s): 3.637979e-12 week: 355 ******** Week 355 almanac for PRN-5 ******** ID: 5 Health: 0 Eccentricity: 0.005370616913 Time of Applicability(s): 147456 Orbital Inclination(rad): 0.9792334139 Rate of Right Ascen(r/s): -7.737465153e-09 SQRT(A) (m 1/2): 5153.642578 Right Ascen at Week(rad): -1.592266066 Argument of Perigee(rad): 1.422385933 Mean Anom(rad): 0.9105277031 Af0(s): -0.0001801281616 Af1(s/s): 0 week: 355 ******** Week 355 almanac for PRN-6 ******** ID: 6 Health: 0 Eccentricity: 0.003872871399 Time of Applicability(s): 147456 Orbital Inclination(rad): 0.9873527262 Rate of Right Ascen(r/s): -7.863184676e-09 SQRT(A) (m 1/2): 5153.569824 Right Ascen at Week(rad): -2.56960058 Argument of Perigee(rad): -0.6142548183 Mean Anom(rad): -1.379289537 Af0(s): -0.0004785831909 Af1(s/s): -3.637979e-12 week: 355 ******** Week 355 almanac for PRN-7 ******** ID: 7 Health: 0 Eccentricity: 0.02025079727 Time of Applicability(s): 147456 Orbital Inclination(rad): 0.9510045721 Rate of Right Ascen(r/s): -7.874613723e-09 SQRT(A) (m 1/2): 5153.576172 Right Ascen at Week(rad): 0.5468188358 Argument of Perigee(rad): -2.002266624 Mean Anom(rad): -2.283234904 Af0(s): -0.0001107901245 Af1(s/s): -3.637979e-12 week: 355 ******** Week 355 almanac for PRN-8 ******** ID: 8 Health: 0 Eccentricity: 0.01145505905 Time of Applicability(s): 147456 Orbital Inclination(rad): 0.9441495955 Rate of Right Ascen(r/s): -8.137481816e-09 SQRT(A) (m 1/2): 5153.620605 Right Ascen at Week(rad): 2.595167801 Argument of Perigee(rad): 0.5077191785 Mean Anom(rad): 0.5623316659 Af0(s): 0.0003949253418 Af1(s/s): -3.637979e-12 week: 355 ******** Week 355 almanac for PRN-9 ******** ID: 9 Health: 0 Eccentricity: 0.003345012665 Time of Applicability(s): 147456 Orbital Inclination(rad): 0.96464262 Rate of Right Ascen(r/s): -7.817468486e-09 SQRT(A) (m 1/2): 5153.52002 Right Ascen at Week(rad): -0.5257101216 Argument of Perigee(rad): 2.066118949 Mean Anom(rad): 1.15524258 Af0(s): 0.0006089688477 Af1(s/s): 0 week: 355 ******** Week 355 almanac for PRN-10 ******** ID: 10 Health: 0 Eccentricity: 0.01096630096 Time of Applicability(s): 147456 Orbital Inclination(rad): 0.9922003452 Rate of Right Ascen(r/s): -7.577458489e-09 SQRT(A) (m 1/2): 5153.610352 Right Ascen at Week(rad): -1.535463462 Argument of Perigee(rad): -2.26285161 Mean Anom(rad): 2.55856236 Af0(s): -0.000462002356 Af1(s/s): -3.637979e-12 week: 355 ******** Week 355 almanac for PRN-11 ******** ID: 11 Health: 0 Eccentricity: 0.002247333527 Time of Applicability(s): 147456 Orbital Inclination(rad): 0.9641992037 Rate of Right Ascen(r/s): -8.091765626e-09 SQRT(A) (m 1/2): 5153.508301 Right Ascen at Week(rad): -2.550033711 Argument of Perigee(rad): -2.284807459 Mean Anom(rad): -0.3772308181 Af0(s): -0.0003640246948 Af1(s/s): 1.455192e-11 week: 355 ******** Week 355 almanac for PRN-12 ******** ID: 12 Health: 0 Eccentricity: 0.009079456329 Time of Applicability(s): 147456 Orbital Inclination(rad): 0.9588422552 Rate of Right Ascen(r/s): -7.748894201e-09 SQRT(A) (m 1/2): 5153.509277 Right Ascen at Week(rad): 1.664669885 Argument of Perigee(rad): 1.53903139 Mean Anom(rad): -2.89742718 Af0(s): -0.0004793368652 Af1(s/s): 0 week: 355 ******** Week 355 almanac for PRN-13 ******** ID: 13 Health: 0 Eccentricity: 0.009925842285 Time of Applicability(s): 147456 Orbital Inclination(rad): 0.9762313655 Rate of Right Ascen(r/s): -7.726036106e-09 SQRT(A) (m 1/2): 5153.620117 Right Ascen at Week(rad): -0.3511355428 Argument of Perigee(rad): 1.000207905 Mean Anom(rad): 0.2955703095 Af0(s): 0.0005441528564 Af1(s/s): 0 week: 355 ******** Week 355 almanac for PRN-14 ******** ID: 14 Health: 0 Eccentricity: 0.006555557251 Time of Applicability(s): 147456 Orbital Inclination(rad): 0.9421721983 Rate of Right Ascen(r/s): -7.943188008e-09 SQRT(A) (m 1/2): 5153.594238 Right Ascen at Week(rad): 1.610577588 Argument of Perigee(rad): -2.762435747 Mean Anom(rad): -3.095393093 Af0(s): 0.0005780682007 Af1(s/s): 3.637979e-12 week: 355 ******** Week 355 almanac for PRN-15 ******** ID: 15 Health: 0 Eccentricity: 0.01660251617 Time of Applicability(s): 147456 Orbital Inclination(rad): 0.9423998986 Rate of Right Ascen(r/s): -8.080336578e-09 SQRT(A) (m 1/2): 5153.623535 Right Ascen at Week(rad): -0.6688699273 Argument of Perigee(rad): 1.495039548 Mean Anom(rad): -0.4420699689 Af0(s): 0.0003007160522 Af1(s/s): 3.637979e-12 week: 355 ******** Week 355 almanac for PRN-16 ******** ID: 16 Health: 0 Eccentricity: 0.01505184174 Time of Applicability(s): 147456 Orbital Inclination(rad): 0.9579853831 Rate of Right Ascen(r/s): -7.783181343e-09 SQRT(A) (m 1/2): 5153.580566 Right Ascen at Week(rad): 1.681711827 Argument of Perigee(rad): 0.924539509 Mean Anom(rad): 1.567369214 Af0(s): 0.0001545032349 Af1(s/s): 7.275958e-12 week: 355 ******** Week 355 almanac for PRN-17 ******** ID: 17 Health: 0 Eccentricity: 0.01276922226 Time of Applicability(s): 147456 Orbital Inclination(rad): 0.9599148433 Rate of Right Ascen(r/s): -8.011762293e-09 SQRT(A) (m 1/2): 5153.522949 Right Ascen at Week(rad): 2.699286747 Argument of Perigee(rad): -1.132260956 Mean Anom(rad): 0.4616012595 Af0(s): -3.466901855e-05 Af1(s/s): -1.091394e-11 week: 355 ******** Week 355 almanac for PRN-18 ******** ID: 18 Health: 0 Eccentricity: 0.005703926086 Time of Applicability(s): 147456 Orbital Inclination(rad): 0.972312524 Rate of Right Ascen(r/s): -8.011762293e-09 SQRT(A) (m 1/2): 5153.597168 Right Ascen at Week(rad): -2.574137733 Argument of Perigee(rad): -2.856001834 Mean Anom(rad): -1.524229749 Af0(s): -0.0003481975342 Af1(s/s): 1.091394e-11 week: 355 ******** Week 355 almanac for PRN-19 ******** ID: 19 Health: 0 Eccentricity: 0.01101589203 Time of Applicability(s): 147456 Orbital Inclination(rad): 0.9591238845 Rate of Right Ascen(r/s): -8.023191341e-09 SQRT(A) (m 1/2): 5153.661621 Right Ascen at Week(rad): 2.743186835 Argument of Perigee(rad): 2.918294337 Mean Anom(rad): 2.314855656 Af0(s): 0.0005433991821 Af1(s/s): 0 week: 355 ******** Week 355 almanac for PRN-21 ******** ID: 21 Health: 0 Eccentricity: 0.0006046295166 Time of Applicability(s): 147456 Orbital Inclination(rad): 0.962083988 Rate of Right Ascen(r/s): -7.897471818e-09 SQRT(A) (m 1/2): 5153.699219 Right Ascen at Week(rad): -1.525646884 Argument of Perigee(rad): -0.447617916 Mean Anom(rad): -3.092157353 Af0(s): 0.0003067454468 Af1(s/s): 7.275958e-12 week: 355 ******** Week 355 almanac for PRN-22 ******** ID: 22 Health: 0 Eccentricity: 0.01218318939 Time of Applicability(s): 147456 Orbital Inclination(rad): 0.9574341088 Rate of Right Ascen(r/s): -7.794610391e-09 SQRT(A) (m 1/2): 5153.578613 Right Ascen at Week(rad): 1.6850558 Argument of Perigee(rad): -0.9965002855 Mean Anom(rad): 1.112901564 Af0(s): -4.295943603e-05 Af1(s/s): 3.637979e-12 week: 355 ******** Week 355 almanac for PRN-23 ******** ID: 23 Health: 0 Eccentricity: 0.006000518799 Time of Applicability(s): 147456 Orbital Inclination(rad): 0.9872029234 Rate of Right Ascen(r/s): -7.657461821e-09 SQRT(A) (m 1/2): 5153.65918 Right Ascen at Week(rad): -1.567397676 Argument of Perigee(rad): -2.744426079 Mean Anom(rad): -2.628752467 Af0(s): 0.0004778295166 Af1(s/s): 3.637979e-12 week: 355 ******** Week 355 almanac for PRN-24 ******** ID: 24 Health: 0 Eccentricity: 0.01783657074 Time of Applicability(s): 147456 Orbital Inclination(rad): 0.9350595609 Rate of Right Ascen(r/s): -8.137481816e-09 SQRT(A) (m 1/2): 5153.588379 Right Ascen at Week(rad): 0.4389690507 Argument of Perigee(rad): 1.130855056 Mean Anom(rad): -1.302363921 Af0(s): -0.000116819519 Af1(s/s): 1.455192e-11 week: 355 ******** Week 355 almanac for PRN-25 ******** ID: 25 Health: 0 Eccentricity: 0.01294660568 Time of Applicability(s): 147456 Orbital Inclination(rad): 0.947163628 Rate of Right Ascen(r/s): -7.874613723e-09 SQRT(A) (m 1/2): 5153.686035 Right Ascen at Week(rad): 1.571206038 Argument of Perigee(rad): 1.152759598 Mean Anom(rad): -3.058143875 Af0(s): 0.0003534732544 Af1(s/s): -3.637979e-12 week: 355 ******** Week 355 almanac for PRN-26 ******** ID: 26 Health: 0 Eccentricity: 0.01097774506 Time of Applicability(s): 147456 Orbital Inclination(rad): 0.9279349392 Rate of Right Ascen(r/s): -8.091765626e-09 SQRT(A) (m 1/2): 5153.641113 Right Ascen at Week(rad): 1.497304941 Argument of Perigee(rad): 0.7045125102 Mean Anom(rad): 2.397433707 Af0(s): -0.0002509735474 Af1(s/s): -7.275958e-12 week: 355 ******** Week 355 almanac for PRN-27 ******** ID: 27 Health: 0 Eccentricity: 0.01421976089 Time of Applicability(s): 147456 Orbital Inclination(rad): 0.9532695906 Rate of Right Ascen(r/s): -8.057478483e-09 SQRT(A) (m 1/2): 5153.615234 Right Ascen at Week(rad): 2.626879183 Argument of Perigee(rad): 0.8704977703 Mean Anom(rad): 0.6547592515 Af0(s): -2.110288086e-05 Af1(s/s): -7.275958e-12 week: 355 ******** Week 355 almanac for PRN-28 ******** ID: 28 Health: 0 Eccentricity: 0.0003991127014 Time of Applicability(s): 147456 Orbital Inclination(rad): 0.9619701379 Rate of Right Ascen(r/s): -7.817468486e-09 SQRT(A) (m 1/2): 5153.713867 Right Ascen at Week(rad): 0.5206834883 Argument of Perigee(rad): 0.2809334513 Mean Anom(rad): -2.20112274 Af0(s): -0.0004785831909 Af1(s/s): 7.275958e-12 week: 355 ******** Week 355 almanac for PRN-29 ******** ID: 29 Health: 0 Eccentricity: 0.00328874588 Time of Applicability(s): 147456 Orbital Inclination(rad): 0.9625693491 Rate of Right Ascen(r/s): -8.000333246e-09 SQRT(A) (m 1/2): 5153.730957 Right Ascen at Week(rad): 2.715901751 Argument of Perigee(rad): 2.746433062 Mean Anom(rad): 0.5312902763 Af0(s): -0.0003052380981 Af1(s/s): 7.275958e-12 week: 355 ******** Week 355 almanac for PRN-30 ******** ID: 30 Health: 0 Eccentricity: 0.007922172546 Time of Applicability(s): 147456 Orbital Inclination(rad): 0.9362579834 Rate of Right Ascen(r/s): -8.068907531e-09 SQRT(A) (m 1/2): 5153.714355 Right Ascen at Week(rad): 0.5383276379 Argument of Perigee(rad): -2.341832147 Mean Anom(rad): -2.403488362 Af0(s): 7.913580322e-05 Af1(s/s): 1.091394e-11 week: 355 ******** Week 355 almanac for PRN-31 ******** ID: 31 Health: 0 Eccentricity: 0.0108499527 Time of Applicability(s): 147456 Orbital Inclination(rad): 0.9547616266 Rate of Right Ascen(r/s): -7.897471818e-09 SQRT(A) (m 1/2): 5153.706055 Right Ascen at Week(rad): 0.5708842829 Argument of Perigee(rad): 0.9331509236 Mean Anom(rad): 2.925370273 Af0(s): -0.0001349077026 Af1(s/s): 3.637979e-12 week: 355 ******** Week 355 almanac for PRN-32 ******** ID: 32 Health: 0 Eccentricity: 0.009220123291 Time of Applicability(s): 147456 Orbital Inclination(rad): 0.9677165737 Rate of Right Ascen(r/s): -7.771752296e-09 SQRT(A) (m 1/2): 5153.665527 Right Ascen at Week(rad): -0.5088333369 Argument of Perigee(rad): -2.01988306 Mean Anom(rad): 1.258684417 Af0(s): -0.0001153121704 Af1(s/s): 1.818989e-11 week: 355